FENGYUN 1C DEB, 37065

Orbit data source: Space-Track

FENGYUN 1C DEB, 37065 is space debris in LEO originally from a launch on Mon, 10 May 1999 UTC launched from the Taiyaun Space Center, China (TSC). Fengyun 1C debris stems from the Chinese weather satellite Fengyun-1C, which was intentionally destroyed by a Chinese anti-satellite missile in 2007. This event dramatically increased the amount of space debris, with thousands of trackable fragments posing hazards to satellites and human spaceflight. The Fengyun 1C debris cloud has become a focal point in discussions about space sustainability and the need for international regulations to prevent the creation of new debris.

Loading next visibility...
Identifier
37065, 1999-025EEZ
Orbit
LEO
Country
Flag of CNCN / PRC
Related business
Manufacturer
Unknown
Mission
Spacecraft
Bus & Motor
Unknown
Mass
Unknown
Launch date (UTC)
1999-05-10 (27 years ago)
Launch vehicle
Unknown
Launch site
Taiyaun Space Center, China (TSC)
Object type
Payload
Rocket body
Debris
Shape & HBR
Unknown shape, 0.1 m
Radar Cross Section
Small (<0.1 m²)

Expand to show TLE details & history
Last TLE update: 2 days ago

TLE from 2 days ago
0 FENGYUN 1C DEB
1 37065U 99025EEZ 26175.93269730  .00001678  00000-0  17982-2 0  9997
2 37065 103.2850  64.1668 0284601 180.8034 179.2669 13.59898196248416
Epoch: 2026-06-24T22:23Z
TLE epoch observation values (Epoch: 2026-06-24T22:23:05.046Z)
Latitude
-0.00002°
Longitude
175.31297°
Altitude
1,249.747 km
Speed
7.127 km/s
True Right ascension
04h 16m 40s
True Declination
0° 00' 00"
Sunlit
Object was in daylight at epoch
Visualization orbit readout
Latitude
Unknown
Longitude
Unknown
Altitude
Unknown
Speed
Unknown
Apparent Right ascension
Unknown
Apparent Declination
Unknown
Sunlit
N/A
Visualization observer readout
Local Sidereal Time
15:30:58
Azimuth
Unknown
Elevation
Unknown
Doppler factor
Unknown
Orbital elements
Apogee altitude
1,244.502 km
Perigee altitude
822.627 km
Semi-major axis
7,411.702 km
Eccentricity
0.02846
Inclination
103.285°
RAAN
64.1668°
Arg. of periapsis
180.8034°
True anomaly
179.30719°
Mean anomaly
179.2669°
Eccentric anomaly
179.28719°
Mean motion
3.40147 °/min
Orbital period
105.84 mins
BSTAR
0.0017982
Loading maneuver chart data...
Computing Atmospheric mass density...

Documentation

Showing up to 5 results
|